Waterville, ME

1:44 AM EDT on September 27, 2016 (GMT -0400)
Waterville Lafleur

Weather History for KWVL - January, 2013

Change the Weather History Date:

Sunday, January 27, 2013

  Actual Average Record
Temperature  
Mean Temperature 14 °F -  
Max Temperature 21 °F 34 °F 57 °F (1974)
Min Temperature 6 °F 9 °F -23 °F (1982)
Degree Days  
Heating Degree Days 52    
Moisture  
Dew Point -3 °F    
Average Humidity 50    
Maximum Humidity 62    
Minimum Humidity 39    
Precipitation  
Precipitation 0.00 in - - ()
Sea Level Pressure  
Sea Level Pressure 30.24 in    
Wind  
Wind Speed 8 mph (NW)    
Max Wind Speed 17 mph    
Max Gust Speed 23 mph    
Visibility 10 miles    
Events      
Averages and records for this station are not official NWS values.
T = Trace of Precipitation, MM = Missing Value Source: NWS Daily Summary

Daily Weather History Graph

Daily Weather History Graph

Search for Another Location

Airport or City:

Trip Planner

Search our weather history database for the weather conditions in past years. The results will help you decide how hot, cold, wet, or windy it might be!

Date:

Astronomy

Jan. 27, 2013 Rise Set
Actual Time 7:02 AM EST 4:41 PM EST
Civil Twilight 6:31 AM EST 5:12 PM EST
Nautical Twilight 5:55 AM EST 5:47 PM EST
Astronomical Twilight 5:21 AM EST 6:22 PM EST
Moon 5:36 PM EST 6:50 AM EST
Length of Visible Light 10h 41m
Length of Day
9h 38m
Full, 100% of the Moon is Illuminated
Jan 27
Full
Feb 3
Last Quarter
Feb 10
New
Feb 17
First Quarter
Feb 25
Full

Hourly Weather History & Observations

Time (EST) Temp. Windchill Dew Point Humidity Pressure Visibility Wind Dir Wind Speed Gust Speed Precip Events Conditions
12:15 AM 10.4 °F 4.0 °F -4.0 °F 52% 30.06 in 10.0 mi WNW 3.5 mph - N/A   Clear
12:55 AM 10.4 °F -0.4 °F -2.2 °F 57% 30.06 in 10.0 mi West 6.9 mph - N/A   Clear
1:15 AM 10.4 °F -0.4 °F -2.2 °F 57% 30.06 in 10.0 mi WNW 6.9 mph - N/A   Clear
1:35 AM 10.4 °F -1.5 °F -2.2 °F 57% 30.07 in 10.0 mi WNW 8.1 mph - N/A   Clear
1:55 AM 10.4 °F -0.4 °F -2.2 °F 57% 30.08 in 10.0 mi West 6.9 mph - N/A   Clear
2:15 AM 10.4 °F -4.8 °F -2.2 °F 57% 30.08 in 10.0 mi WNW 12.7 mph 19.6 mph N/A   Partly Cloudy
2:35 AM 10.4 °F -3.3 °F -4.0 °F 52% 30.08 in 10.0 mi WNW 10.4 mph - N/A   Partly Cloudy
2:55 AM 10.4 °F 0.8 °F -4.0 °F 52% 30.09 in 10.0 mi WNW 5.8 mph - N/A   Clear
3:15 AM 10.4 °F -0.4 °F -5.8 °F 48% 30.10 in 10.0 mi West 6.9 mph - N/A   Clear
3:35 AM 10.4 °F 0.8 °F -5.8 °F 48% 30.10 in 10.0 mi WNW 5.8 mph - N/A   Clear
3:55 AM 10.4 °F 2.2 °F -5.8 °F 48% 30.11 in 10.0 mi NW 4.6 mph - N/A   Clear
4:15 AM 8.6 °F 0.1 °F -5.8 °F 52% 30.12 in 10.0 mi WNW 4.6 mph - N/A   Clear
4:35 AM 8.6 °F -2.6 °F -5.8 °F 52% 30.12 in 10.0 mi NW 6.9 mph - N/A   Clear
4:55 AM 6.8 °F - -7.6 °F 52% 30.13 in 10.0 mi Calm Calm - N/A   Clear
5:15 AM 8.6 °F -1.3 °F -4.0 °F 57% 30.14 in 10.0 mi NW 5.8 mph - N/A   Clear
5:35 AM 8.6 °F -3.7 °F -5.8 °F 52% 30.15 in 10.0 mi WNW 8.1 mph - N/A   Clear
5:55 AM 8.6 °F 0.1 °F -5.8 °F 52% 30.17 in 10.0 mi NNW 4.6 mph - N/A   Clear
6:15 AM 6.8 °F - -7.6 °F 52% 30.18 in 10.0 mi Calm Calm - N/A   Clear
6:35 AM 6.8 °F -4.8 °F -5.8 °F 56% 30.18 in 10.0 mi NNW 6.9 mph - N/A   Clear
7:15 AM 6.8 °F -5.9 °F -5.8 °F 56% 30.20 in 10.0 mi North 8.1 mph - N/A   Clear
7:55 AM 6.8 °F -7.8 °F -5.8 °F 56% 30.24 in 10.0 mi North 10.4 mph - N/A   Clear
8:15 AM 6.8 °F -6.9 °F -5.8 °F 56% 30.25 in 10.0 mi North 9.2 mph - N/A   Clear
8:35 AM 8.6 °F -6.3 °F -5.8 °F 52% 30.25 in 10.0 mi NW 11.5 mph - N/A   Clear
8:55 AM 10.4 °F -6.0 °F -4.0 °F 52% 30.26 in 10.0 mi NW 15.0 mph 21.9 mph N/A   Clear
9:15 AM 10.4 °F -2.4 °F -2.2 °F 57% 30.27 in 10.0 mi NW 9.2 mph 20.7 mph N/A   Clear
9:35 AM 12.2 °F -4.3 °F -2.2 °F 53% 30.27 in 10.0 mi NW 16.1 mph 19.6 mph N/A   Clear
9:55 AM 12.2 °F -2.5 °F -2.2 °F 53% 30.26 in 10.0 mi North 12.7 mph 18.4 mph N/A   Clear
10:15 AM 14.0 °F -0.2 °F -2.2 °F 49% 30.27 in 10.0 mi NW 12.7 mph 23.0 mph N/A   Clear
10:35 AM 14.0 °F 2.0 °F -2.2 °F 49% 30.27 in 10.0 mi WNW 9.2 mph - N/A   Clear
10:56 AM 15.8 °F 1.4 °F -0.4 °F 49% 30.27 in 10.0 mi NW 13.8 mph - N/A   Clear
11:15 AM 15.8 °F 3.4 °F -0.4 °F 49% 30.26 in 10.0 mi WNW 10.4 mph - N/A   Clear
11:55 AM 17.6 °F 4.3 °F -0.4 °F 45% 30.25 in 10.0 mi WNW 12.7 mph 17.3 mph N/A   Clear
12:15 PM 17.6 °F 7.3 °F -0.4 °F 45% 30.24 in 10.0 mi NW 8.1 mph - N/A   Clear
12:35 PM 19.4 °F 8.6 °F -0.4 °F 42% 30.23 in 10.0 mi WNW 9.2 mph - N/A   Clear
12:55 PM 19.4 °F 7.9 °F -0.4 °F 42% 30.23 in 10.0 mi NW 10.4 mph 17.3 mph N/A   Clear
1:15 PM 19.4 °F 7.9 °F -0.4 °F 42% 30.23 in 10.0 mi NW 10.4 mph 16.1 mph N/A   Clear
1:35 PM 21.2 °F 10.9 °F -0.4 °F 39% 30.24 in 10.0 mi WNW 9.2 mph 17.3 mph N/A   Clear
1:55 PM 21.2 °F 9.5 °F -0.4 °F 39% 30.24 in 10.0 mi West 11.5 mph 18.4 mph N/A   Clear
2:16 PM 21.2 °F 9.5 °F -0.4 °F 39% 30.25 in 10.0 mi NW 11.5 mph 18.4 mph N/A   Clear
2:35 PM 21.2 °F 6.8 °F -0.4 °F 39% 30.26 in 10.0 mi NNW 17.3 mph 21.9 mph N/A   Clear
2:55 PM 21.2 °F 9.5 °F -0.4 °F 39% 30.26 in 10.0 mi NW 11.5 mph 18.4 mph N/A   Clear
3:15 PM 21.2 °F 10.1 °F -0.4 °F 39% 30.26 in 10.0 mi NW 10.4 mph 17.3 mph N/A   Clear
3:35 PM 21.2 °F 8.3 °F -0.4 °F 39% 30.26 in 10.0 mi North 13.8 mph 17.3 mph N/A   Clear
3:55 PM 21.2 °F 11.7 °F -0.4 °F 39% 30.27 in 10.0 mi NW 8.1 mph - N/A   Clear
4:15 PM 19.4 °F 10.4 °F -0.4 °F 42% 30.28 in 10.0 mi WNW 6.9 mph - N/A   Clear
4:35 PM 19.4 °F 10.4 °F -2.2 °F 39% 30.28 in 10.0 mi NW 6.9 mph 17.3 mph N/A   Clear
4:55 PM 17.6 °F 5.7 °F -0.4 °F 45% 30.29 in 10.0 mi NNW 10.4 mph - N/A   Clear
5:15 PM 17.6 °F 3.2 °F -0.4 °F 45% 30.30 in 10.0 mi NW 15.0 mph - N/A   Clear
5:35 PM 17.6 °F 5.7 °F -0.4 °F 45% 30.31 in 10.0 mi NW 10.4 mph 17.3 mph N/A   Clear
6:15 PM 15.8 °F 5.1 °F -0.4 °F 49% 30.32 in 10.0 mi NW 8.1 mph - N/A   Clear
6:35 PM 15.8 °F 3.4 °F -0.4 °F 49% 30.34 in 10.0 mi WNW 10.4 mph - N/A   Clear
6:55 PM 15.8 °F 5.1 °F -0.4 °F 49% 30.34 in 10.0 mi WNW 8.1 mph - N/A   Clear
7:15 PM 14.0 °F 5.1 °F -0.4 °F 53% 30.34 in 10.0 mi NW 5.8 mph - N/A   Clear
7:36 PM 12.2 °F 1.7 °F -0.4 °F 57% 30.35 in 10.0 mi WNW 6.9 mph - N/A   Clear
7:55 PM 12.2 °F -1.0 °F -2.2 °F 53% 30.35 in 10.0 mi NW 10.4 mph - N/A   Clear
8:15 PM 12.2 °F -1.0 °F -2.2 °F 53% 30.35 in 10.0 mi WNW 10.4 mph 16.1 mph N/A   Clear
8:35 PM 12.2 °F -0.2 °F -2.2 °F 53% 30.36 in 10.0 mi WNW 9.2 mph 16.1 mph N/A   Clear
8:55 PM 12.2 °F -1.0 °F -2.2 °F 53% 30.36 in 10.0 mi NW 10.4 mph 17.3 mph N/A   Clear
9:15 PM 12.2 °F -0.2 °F -2.2 °F 53% 30.36 in 10.0 mi WNW 9.2 mph - N/A   Clear
9:35 PM 10.4 °F 2.2 °F -4.0 °F 52% 30.36 in 10.0 mi NW 4.6 mph - N/A   Clear
9:55 PM 10.4 °F 0.8 °F -2.2 °F 57% 30.36 in 10.0 mi NW 5.8 mph - N/A   Clear
10:15 PM 10.4 °F 0.8 °F -4.0 °F 52% 30.35 in 10.0 mi NW 5.8 mph - N/A   Clear
10:35 PM 8.6 °F -1.3 °F -2.2 °F 62% 30.35 in 10.0 mi WNW 5.8 mph - N/A   Clear
10:55 PM 8.6 °F 0.1 °F -2.2 °F 62% 30.35 in 10.0 mi NW 4.6 mph - N/A   Clear
11:15 PM 8.6 °F 0.1 °F -2.2 °F 62% 30.35 in 10.0 mi WNW 4.6 mph - N/A   Clear
11:35 PM 6.8 °F -0.1 °F -5.8 °F 56% 30.35 in 10.0 mi NW 3.5 mph - N/A   Clear
11:55 PM 6.8 °F - -5.8 °F 56% 30.35 in 10.0 mi Calm Calm - N/A   Clear